DW6963 Weather Reports


Display with metric or nautical units.
time (UTC)temp
F
wind
direction
speed
MPH
gust
MPH
rain 1hr
in
rain 24hr
in
rain mn
in
humidity
%
barometer
mb
20260509214911 72 0 0.0 0.0 0.00 0.00 0.00 52 1007.4
20260509214411 72 0 0.0 0.0 0.00 0.00 0.00 51 1007.4
20260509213911 72 0 0.0 0.0 0.00 0.00 0.00 54 1007.4
20260509213410 72 0 0.0 0.0 0.00 0.00 0.00 53 1007.4
20260509212911 72 0 0.0 0.0 0.00 0.00 0.00 52 1007.4
20260509211911 72 0 0.0 0.0 0.00 0.00 0.00 52 1007.6
20260509210910 72 0 0.0 0.0 0.00 0.00 0.00 54 1007.6
20260509210411 72 0 0.0 0.0 0.00 0.00 0.00 54 1007.5
20260509205911 72 0 0.0 0.0 0.00 0.00 0.00 53 1007.5
20260509205411 71 0 0.0 0.0 0.00 0.00 0.00 54 1007.6
20260509204911 71 0 0.0 0.0 0.00 0.00 0.00 54 1007.7
20260509204411 71 0 0.0 0.0 0.00 0.00 0.00 55 1007.7
20260509203911 71 0 0.0 0.0 0.00 0.00 0.00 54 1007.7
20260509203410 71 0 0.0 0.0 0.00 0.00 0.00 53 1007.8
20260509202910 71 0 0.0 0.0 0.00 0.00 0.00 54 1007.8
20260509201910 71 0 0.0 0.0 0.00 0.00 0.00 54 1007.8
20260509201411 71 0 0.0 0.0 0.00 0.00 0.00 55 1007.8
20260509195911 70 0 0.0 0.0 0.00 0.00 0.00 56 1008.0
20260509195412 70 0 0.0 0.0 0.00 0.00 0.00 57 1008.0
20260509194910 70 0 0.0 0.0 0.00 0.00 0.00 58 1008.1
20260509194411 70 0 0.0 0.0 0.00 0.00 0.00 58 1008.2
20260509193910 70 0 0.0 0.0 0.00 0.00 0.00 62 1008.2
20260509193411 70 0 0.0 0.0 0.00 0.00 0.00 59 1008.4
20260509192410 70 0 0.0 0.0 0.00 0.00 0.00 58 1008.4
20260509191410 69 0 0.0 0.0 0.00 0.00 0.00 64 1008.4
20260509190910 68 0 0.0 0.0 0.00 0.00 0.00 62 1008.5
20260509185410 68 0 0.0 0.0 0.00 0.00 0.00 65 1008.5
20260509184910 68 0 0.0 0.0 0.00 0.00 0.00 64 1008.6
20260509184411 68 0 0.0 0.0 0.00 0.00 0.00 64 1008.6
20260509183910 68 0 0.0 0.0 0.00 0.00 0.00 65 1008.7
20260509183410 68 0 0.0 0.0 0.00 0.00 0.00 65 1008.7
20260509182911 67 0 0.0 0.0 0.00 0.00 0.00 63 1008.7
20260509182410 67 0 0.0 0.0 0.00 0.00 0.00 65 1008.7
20260509181911 68 0 0.0 0.0 0.00 0.00 0.00 66 1008.6
20260509181410 67 0 0.0 0.0 0.00 0.00 0.00 67 1008.6
20260509180911 68 0 0.0 0.0 0.00 0.00 0.00 66 1008.7
20260509175910 66 0 0.0 0.0 0.00 0.00 0.00 66 1008.7
20260509174910 66 0 0.0 0.0 0.00 0.00 0.00 66 1008.8
20260509174411 66 0 0.0 0.0 0.00 0.00 0.00 67 1008.6
20260509173911 66 0 0.0 0.0 0.00 0.00 0.00 66 1008.7
20260509173410 66 0 0.0 0.0 0.00 0.00 0.00 67 1008.8
20260509172910 66 0 0.0 0.0 0.00 0.00 0.00 68 1008.7
20260509171910 66 0 0.0 0.0 0.00 0.00 0.00 67 1008.8
20260509171411 65 0 0.0 0.0 0.00 0.00 0.00 70 1008.8
20260509170911 64 0 0.0 0.0 0.00 0.00 0.00 68 1008.9
20260509170410 64 0 0.0 0.0 0.00 0.00 0.00 68 1009.0
20260509165910 64 0 0.0 0.0 0.00 0.00 0.00 70 1009.1
20260509165411 64 0 0.0 0.0 0.00 0.00 0.00 70 1009.1
20260509164911 64 0 0.0 0.0 0.00 0.00 0.00 70 1009.1
20260509164410 64 0 0.0 0.0 0.00 0.00 0.00 71 1009.1
20260509163911 63 0 0.0 0.0 0.00 0.00 0.00 72 1009.1
20260509163410 63 0 0.0 0.0 0.00 0.00 0.00 73 1009.0
20260509162911 63 0 0.0 0.0 0.00 0.00 0.00 75 1009.0
20260509162410 62 0 0.0 0.0 0.00 0.00 0.00 76 1009.0
20260509161911 62 0 0.0 0.0 0.00 0.00 0.00 76 1009.0
20260509161410 62 0 0.0 0.0 0.00 0.00 0.00 76 1009.0
20260509160911 63 0 0.0 0.0 0.00 0.00 0.00 75 1008.9
20260509160411 62 0 0.0 0.0 0.00 0.00 0.00 76 1008.9
20260509155910 62 0 0.0 0.0 0.00 0.00 0.00 75 1008.8
20260509155411 62 0 0.0 0.0 0.00 0.00 0.00 76 1008.8
20260509154910 62 0 0.0 0.0 0.00 0.00 0.00 76 1008.7
20260509154411 63 0 0.0 0.0 0.00 0.00 0.00 78 1008.7
20260509153910 62 0 0.0 0.0 0.00 0.00 0.00 76 1008.7
20260509153411 62 0 0.0 0.0 0.00 0.00 0.00 77 1008.7
20260509152910 62 0 0.0 0.0 0.00 0.00 0.00 77 1008.7
20260509151910 62 0 0.0 0.0 0.00 0.00 0.00 80 1008.5
20260509151410 62 0 0.0 0.0 0.00 0.00 0.00 81 1008.4
20260509150910 61 0 0.0 0.0 0.00 0.00 0.00 81 1008.4
20260509145911 60 0 0.0 0.0 0.00 0.00 0.00 82 1008.4
20260509145410 60 0 0.0 0.0 0.00 0.00 0.00 82 1008.4
20260509144911 60 0 0.0 0.0 0.00 0.00 0.00 83 1008.4
20260509144411 59 0 0.0 0.0 0.00 0.00 0.00 84 1008.4
20260509143910 59 0 0.0 0.0 0.00 0.00 0.00 86 1008.3
20260509143411 59 0 0.0 0.0 0.00 0.00 0.00 87 1008.3
20260509142910 59 0 0.0 0.0 0.00 0.00 0.00 88 1008.3
20260509142411 58 0 0.0 0.0 0.00 0.00 0.00 88 1008.3
20260509141411 58 0 0.0 0.0 0.00 0.00 0.00 90 1008.3
20260509140910 58 0 0.0 0.0 0.00 0.00 0.00 90 1008.4
20260509140411 57 0 0.0 0.0 0.00 0.00 0.00 91 1008.5
20260509135911 57 0 0.0 0.0 0.00 0.00 0.00 91 1008.4
20260509135411 57 0 0.0 0.0 0.00 0.00 0.00 92 1008.4
20260509134910 57 0 0.0 0.0 0.00 0.00 0.00 92 1008.4
20260509134411 57 0 0.0 0.0 0.00 0.00 0.00 92 1008.5
20260509133911 56 0 0.0 0.0 0.00 0.00 0.00 92 1008.4
20260509133411 56 0 0.0 0.0 0.00 0.00 0.00 92 1008.4
20260509132911 56 0 0.0 0.0 0.00 0.00 0.00 92 1008.4
20260509132410 55 0 0.0 0.0 0.00 0.00 0.00 92 1008.4
20260509131911 55 0 0.0 0.0 0.00 0.00 0.00 92 1008.4
20260509131411 55 0 0.0 0.0 0.00 0.00 0.00 92 1008.4
20260509130910 55 0 0.0 0.0 0.00 0.00 0.00 92 1008.4
20260509130411 54 0 0.0 0.0 0.00 0.00 0.00 92 1008.3
20260509125911 54 0 0.0 0.0 0.00 0.00 0.00 92 1008.2
20260509125410 54 0 0.0 0.0 0.00 0.00 0.00 92 1008.1
20260509124911 54 0 0.0 0.0 0.00 0.00 0.00 92 1008.2
20260509123411 54 0 0.0 0.0 0.00 0.00 0.00 92 1008.0
20260509122910 54 0 0.0 0.0 0.00 0.00 0.00 92 1008.2
20260509122411 54 0 0.0 0.0 0.00 0.00 0.00 92 1008.1
20260509121910 54 0 0.0 0.0 0.00 0.00 0.00 92 1008.1
20260509121410 54 0 0.0 0.0 0.00 0.00 0.00 92 1008.2
20260509120911 54 0 0.0 0.0 0.00 0.00 0.00 92 1008.3
20260509120410 54 0 0.0 0.0 0.00 0.00 0.00 92 1008.3
20260509115911 54 0 0.0 0.0 0.00 0.00 0.00 92 1008.3
20260509115410 54 0 0.0 0.0 0.00 0.00 0.00 92 1008.1
20260509114911 54 0 0.0 0.0 0.00 0.00 0.00 92 1008.1
20260509114411 54 0 0.0 0.0 0.00 0.00 0.00 92 1008.2
20260509113910 54 0 0.0 0.0 0.00 0.00 0.00 92 1008.3
20260509112911 54 0 0.0 0.0 0.00 0.00 0.00 92 1008.3
20260509111911 54 0 0.0 0.0 0.00 0.00 0.00 92 1008.5
20260509111411 54 0 0.0 0.0 0.00 0.00 0.00 92 1008.6
20260509110910 54 0 0.0 0.0 0.00 0.00 0.00 92 1008.6
20260509105910 54 0 0.0 0.0 0.00 0.00 0.00 91 1008.5
20260509105410 54 0 0.0 0.0 0.00 0.00 0.00 91 1008.5
20260509104911 54 0 0.0 0.0 0.00 0.00 0.00 91 1008.6
20260509104410 54 0 0.0 0.0 0.00 0.00 0.00 91 1008.6
20260509103911 54 0 0.0 0.0 0.00 0.00 0.00 91 1008.6
20260509102911 54 0 0.0 0.0 0.00 0.00 0.00 91 1008.5
20260509102411 54 0 0.0 0.0 0.00 0.00 0.00 91 1008.5
20260509101412 54 0 0.0 0.0 0.00 0.00 0.00 91 1008.6
20260509100910 54 0 0.0 0.0 0.00 0.00 0.00 91 1008.6
20260509095910 54 0 0.0 0.0 0.00 0.00 0.00 91 1008.6
20260509095411 54 0 0.0 0.0 0.00 0.00 0.00 91 1008.7
20260509094911 54 0 0.0 0.0 0.00 0.00 0.00 91 1008.8
20260509094410 54 0 0.0 0.0 0.00 0.00 0.00 91 1008.8
20260509093910 54 0 0.0 0.0 0.00 0.00 0.00 91 1009.0
20260509093411 54 0 0.0 0.0 0.00 0.00 0.00 91 1009.1
20260509092910 54 0 0.0 0.0 0.00 0.00 0.00 91 1009.1
20260509092411 54 0 0.0 0.0 0.00 0.00 0.00 91 1009.1
20260509091911 54 0 0.0 0.0 0.00 0.00 0.00 91 1009.2
20260509091411 54 0 0.0 0.0 0.00 0.00 0.00 91 1009.2
20260509090911 54 0 0.0 0.0 0.00 0.00 0.00 91 1009.3
20260509085911 54 0 0.0 0.0 0.00 0.00 0.00 91 1009.4
20260509085410 54 0 0.0 0.0 0.00 0.00 0.00 91 1009.4
20260509084911 54 0 0.0 0.0 0.00 0.00 0.00 91 1009.4
20260509084410 54 0 0.0 0.0 0.00 0.00 0.00 91 1009.4
20260509082911 54 0 0.0 0.0 0.00 0.00 0.00 91 1009.3
20260509081911 54 0 0.0 0.0 0.00 0.00 0.00 90 1009.0
20260509081411 54 0 0.0 0.0 0.00 0.00 0.00 90 1009.0
20260509080911 54 0 0.0 0.0 0.00 0.00 0.00 90 1009.0
20260509080411 54 0 0.0 0.0 0.00 0.00 0.00 90 1009.1
20260509075911 54 0 0.0 0.0 0.00 0.00 0.00 90 1009.2
20260509075410 54 0 0.0 0.0 0.00 0.00 0.00 90 1009.3
20260509074911 54 0 0.0 0.0 0.00 0.00 0.00 90 1009.4
20260509074411 54 0 0.0 0.0 0.00 0.00 0.00 90 1009.4
20260509073911 54 0 0.0 0.0 0.00 0.00 0.00 90 1009.5
20260509073410 54 0 0.0 0.0 0.00 0.00 0.00 90 1009.6
20260509072410 54 0 0.0 0.0 0.00 0.00 0.00 90 1009.7
20260509071411 54 0 0.0 0.0 0.00 0.00 0.00 90 1009.7
20260509070910 54 0 0.0 0.0 0.00 0.00 0.00 90 1009.7
20260509070411 54 0 0.0 0.0 0.00 0.00 0.00 90 1009.7
20260509065911 54 0 0.0 0.0 0.00 0.00 0.00 90 1009.8
20260509065410 54 0 0.0 0.0 0.00 0.00 0.00 90 1009.8
20260509064911 54 0 0.0 0.0 0.00 0.00 0.00 90 1009.8
20260509064410 54 0 0.0 0.0 0.00 0.00 0.00 89 1009.8
20260509063911 54 0 0.0 0.0 0.00 0.00 0.00 89 1009.7
20260509062911 54 0 0.0 0.0 0.00 0.00 0.00 89 1009.6
20260509061910 54 0 0.0 0.0 0.00 0.00 0.00 89 1009.4
20260509061411 54 0 0.0 0.0 0.00 0.00 0.00 89 1009.6
20260509060911 54 0 0.0 0.0 0.00 0.00 0.00 89 1009.7
20260509055911 54 0 0.0 0.0 0.00 0.00 0.00 88 1009.9
20260509055411 54 0 0.0 0.0 0.00 0.00 0.00 88 1009.9
20260509054911 54 0 0.0 0.0 0.00 0.00 0.00 88 1009.9
20260509054411 54 0 0.0 0.0 0.00 0.00 0.00 88 1010.0
20260509053910 54 0 0.0 0.0 0.00 0.00 0.00 88 1010.1
20260509053410 54 0 0.0 0.0 0.00 0.00 0.00 87 1010.1
20260509052911 54 0 0.0 0.0 0.00 0.00 0.00 87 1010.1
20260509052410 54 0 0.0 0.0 0.00 0.00 0.00 87 1010.1
20260509051911 54 0 0.0 0.0 0.00 0.00 0.00 87 1010.1
20260509051411 54 0 0.0 0.0 0.00 0.00 0.00 86 1010.2
20260509050910 54 0 0.0 0.0 0.00 0.00 0.00 86 1010.2
20260509050411 54 0 0.0 0.0 0.00 0.00 0.00 86 1010.3
20260509045910 54 0 0.0 0.0 0.00 0.00 0.00 85 1010.4
20260509045411 55 0 0.0 0.0 0.00 0.00 0.00 85 1010.4
20260509044911 55 0 0.0 0.0 0.00 0.00 0.00 85 1010.4
20260509044410 55 0 0.0 0.0 0.00 0.00 0.00 85 1010.3
20260509043911 55 0 0.0 0.0 0.00 0.00 0.00 85 1010.3
20260509043411 55 0 0.0 0.0 0.00 0.00 0.00 84 1010.3
20260509042911 55 0 0.0 0.0 0.00 0.00 0.00 84 1010.3
20260509041911 55 0 0.0 0.0 0.00 0.00 0.00 84 1010.4
20260509040414 55 0 0.0 0.0 0.00 0.00 0.00 83 1010.5
20260509035910 55 0 0.0 0.0 0.00 0.00 0.00 83 1010.5
20260509034910 56 0 0.0 0.0 0.00 0.00 0.00 82 1010.4
20260509034411 56 0 0.0 0.0 0.00 0.00 0.00 82 1010.3
20260509033911 56 0 0.0 0.0 0.00 0.00 0.00 81 1010.4
20260509033410 56 0 0.0 0.0 0.00 0.00 0.00 81 1010.3
20260509032911 56 0 0.0 0.0 0.00 0.00 0.00 81 1010.3
20260509032410 56 0 0.0 0.0 0.00 0.00 0.00 81 1010.4
20260509031911 56 0 0.0 0.0 0.00 0.00 0.00 80 1010.6
20260509031411 56 0 0.0 0.0 0.00 0.00 0.00 80 1010.4
20260509030911 56 0 0.0 0.0 0.00 0.00 0.00 80 1010.3
20260509030411 57 0 0.0 0.0 0.00 0.00 0.00 79 1010.3
20260509025911 57 0 0.0 0.0 0.00 0.00 0.00 79 1010.3
20260509024910 57 0 0.0 0.0 0.00 0.00 0.00 77 1010.4
20260509023911 58 0 0.0 0.0 0.00 0.00 0.00 76 1010.5
20260509023411 58 0 0.0 0.0 0.00 0.00 0.00 75 1010.5
20260509022910 58 0 0.0 0.0 0.00 0.00 0.00 74 1010.6
20260509022411 58 0 0.0 0.0 0.00 0.00 0.00 73 1010.6
20260509021911 58 0 0.0 0.0 0.00 0.00 0.00 73 1010.6
20260509020911 59 0 0.0 0.0 0.00 0.00 0.00 72 1010.5
20260509020411 59 0 0.0 0.0 0.00 0.00 0.00 71 1010.5
20260509015911 59 0 0.0 0.0 0.00 0.00 0.00 70 1010.5
20260509014911 60 0 0.0 0.0 0.00 0.00 0.00 69 1010.5
20260509014411 59 0 0.0 0.0 0.00 0.00 0.00 69 1010.5
20260509013911 58 0 0.0 0.0 0.00 0.00 0.00 71 1010.4
20260509013411 57 0 0.0 0.0 0.00 0.00 0.00 79 1010.3
20260509012910 57 0 0.0 0.0 0.00 0.00 0.00 79 1010.3
20260509012411 57 0 0.0 0.0 0.00 0.00 0.00 79 1010.3
20260509011911 57 0 0.0 0.0 0.00 0.00 0.00 79 1010.1
20260509011411 57 0 0.0 0.0 0.00 0.00 0.00 79 1010.0
20260509010911 58 0 0.0 0.0 0.00 0.00 0.00 78 1009.9
20260509010411 58 0 0.0 0.0 0.00 0.00 0.00 77 1009.7
20260509005911 58 0 0.0 0.0 0.00 0.00 0.00 76 1009.8
20260509005411 58 0 0.0 0.0 0.00 0.00 0.00 76 1009.7
20260509004911 58 0 0.0 0.0 0.00 0.00 0.00 76 1009.7
20260509003911 59 0 0.0 0.0 0.00 0.00 0.00 74 1009.5
20260509003410 59 0 0.0 0.0 0.00 0.00 0.00 73 1009.6
20260509002911 60 0 0.0 0.0 0.00 0.00 0.00 71 1009.7
20260509002410 60 0 0.0 0.0 0.00 0.00 0.00 69 1009.7
20260509001911 60 0 0.0 0.0 0.00 0.00 0.00 66 1009.9
20260509001410 61 0 0.0 0.0 0.00 0.00 0.00 65 1010.1
20260509000911 61 0 0.0 0.0 0.00 0.00 0.00 65 1010.2
20260509000411 61 0 0.0 0.0 0.00 0.00 0.00 64 1010.3
20260508235912 62 0 0.0 0.0 0.00 0.00 0.00 64 1010.3
20260508235410 62 0 0.0 0.0 0.00 0.00 0.00 62 1010.1
20260508234911 62 0 0.0 0.0 0.00 0.00 0.00 60 1010.1
20260508233911 63 0 0.0 0.0 0.00 0.00 0.00 56 1009.9
20260508233411 63 0 0.0 0.0 0.00 0.00 0.00 55 1009.8
20260508232411 63 0 0.0 0.0 0.00 0.00 0.00 56 1009.7
20260508231411 64 0 0.0 0.0 0.00 0.00 0.00 54 1009.7
20260508230410 65 0 0.0 0.0 0.00 0.00 0.00 52 1009.5
20260508225911 65 0 0.0 0.0 0.00 0.00 0.00 50 1009.5
20260508225410 65 0 0.0 0.0 0.00 0.00 0.00 49 1009.5
20260508224911 65 0 0.0 0.0 0.00 0.00 0.00 49 1009.6
20260508224411 65 0 0.0 0.0 0.00 0.00 0.00 49 1009.5
20260508223911 65 0 0.0 0.0 0.00 0.00 0.00 48 1009.5
20260508223411 65 0 0.0 0.0 0.00 0.00 0.00 50 1009.5
20260508222411 65 0 0.0 0.0 0.00 0.00 0.00 49 1009.6
20260508221411 65 0 0.0 0.0 0.00 0.00 0.00 48 1009.5
20260508220411 66 0 0.0 0.0 0.00 0.00 0.00 47 1009.5
20260508215910 66 0 0.0 0.0 0.00 0.00 0.00 47 1009.6